Location: Beneden-Haastrecht
(52.0012°N, 4.7557°E)
Time: 02:13:31
(UTC+00:00)

BREEZE-M R/B - Pass Details

Date: 24 October 2020
Orbit: 309 x 4523 km, 49.7° (Epoch: 24 November)

Event Time Altitude Azimuth Distance (km) Brightness Sun altitude
Rises 16:52:54 0° 244° (WSW) 2,230 8.0 -4.6°
Reaches altitude 10° 16:54:30 10° 238° (WSW) 1,536 6.6 -4.9°
Maximum altitude 16:57:39 53° 160° (SSE) 737 3.4 -5.3°
Drops below altitude 10° 17:03:31 10° 85° (E) 2,847 5.8 -6.2°
Enters shadow 17:04:29 - 84° (E) 3,256 6.0 -6.4°
